SHIYAN-29

Last updated on Tue Sep 22 2026 00:03:16 GMT+0000 (Coordinated Universal Time)

1 65486U 25196A 26264.59730601 -.00000264 00000+0 00000+0 0 9994 2 65486 28.9230 17.3235 0015830 176.2321 116.8224 1.00286106 3848
UTC large
Height (km)
Speed (km/s)
/
Latitude / Longitude
Inclination (degrees)
Orbital Period (minutes)
Azimuth
Elevation
Range (km)
Doppler Factor

Next 0 passes for location: London (51.5072 / 0.1276)

No passes found over London.
SHIYAN-29